GW1035 Weather Reports


time (UTC)temp
F
wind
direction
speed
knots
gust
knots
rain 1hr
in
rain 24hr
in
rain mn
in
humidity
%
barometer
mb
20260505011041 55 0 0.0 0.9 0.00 0.00 0.00 56 1007.1
20260505010537 56 134 0.0 0.0 0.00 0.00 0.00 55 1007.0
20260505010044 56 0 0.0 0.0 0.00 0.00 0.00 52 1007.1
20260505005540 57 0 0.0 0.0 0.00 0.00 0.00 52 1007.0
20260505005040 57 0 0.0 0.0 0.00 0.00 0.00 52 1006.9
20260505004551 57 0 0.0 0.0 0.00 0.00 0.00 52 1006.9
20260505004037 58 0 0.0 0.0 0.00 0.00 0.00 51 1006.8
20260505003537 58 0 0.0 0.0 0.00 0.00 0.00 50 1006.7
20260505003044 58 0 0.0 0.0 0.00 0.00 0.00 50 1006.6
20260505002540 59 0 0.0 0.0 0.00 0.00 0.00 48 1006.5
20260505002040 60 0 0.0 0.0 0.00 0.00 0.00 48 1006.4
20260505001550 60 0 0.0 0.0 0.00 0.00 0.00 47 1006.2
20260505001040 61 0 0.0 0.0 0.00 0.00 0.00 46 1006.2
20260505000546 62 0 0.0 0.0 0.00 0.00 0.00 44 1006.1
20260505000058 62 0 0.0 0.9 0.00 0.00 0.00 43 1006.1
20260504235540 63 0 0.0 0.0 0.00 0.00 0.00 42 1006.1
20260504235040 63 0 0.0 0.9 0.00 0.00 0.00 41 1006.2
20260504234613 64 0 0.0 0.9 0.00 0.00 0.00 40 1006.1
20260504234037 65 0 0.0 1.7 0.00 0.00 0.00 39 1006.0
20260504233537 66 0 0.0 1.7 0.00 0.00 0.00 38 1005.8
20260504233050 66 290 0.0 1.7 0.00 0.00 0.00 38 1006.0
20260504232541 67 0 0.0 2.6 0.00 0.00 0.00 37 1005.9
20260504232040 67 314 0.0 4.3 0.00 0.00 0.00 36 1005.7
20260504231553 68 249 1.7 4.3 0.00 0.00 0.00 35 1005.6
20260504231041 68 264 0.0 2.6 0.00 0.00 0.00 35 1005.6
20260504230542 69 356 0.9 3.5 0.00 0.00 0.00 35 1005.4
20260504230052 69 301 1.7 4.3 0.00 0.00 0.00 34 1005.4
20260504225540 69 248 0.0 4.3 0.00 0.00 0.00 35 1005.4
20260504225040 70 238 0.9 4.3 0.00 0.00 0.00 34 1005.4
20260504224546 69 37 0.9 4.3 0.00 0.00 0.00 34 1005.3
20260504224039 69 261 0.9 4.3 0.00 0.00 0.00 34 1005.3
20260504223539 69 2 1.7 5.2 0.00 0.00 0.00 34 1005.2
20260504223049 69 285 1.7 5.2 0.00 0.00 0.00 35 1005.2
20260504222539 69 256 0.9 4.3 0.00 0.00 0.00 34 1005.2
20260504222037 69 270 2.6 4.3 0.00 0.00 0.00 34 1005.2
20260504221557 70 264 1.7 4.3 0.00 0.00 0.00 33 1005.2
20260504221039 71 262 1.7 4.3 0.00 0.00 0.00 33 1005.3
20260504220540 71 261 0.9 2.6 0.00 0.00 0.00 32 1005.2
20260504220055 71 250 0.0 4.3 0.00 0.00 0.00 34 1005.2
20260504215539 70 283 1.7 6.1 0.00 0.00 0.00 33 1005.2
20260504215036 70 228 2.6 7.0 0.00 0.00 0.00 33 1005.2
20260504214551 69 310 2.6 7.0 0.00 0.00 0.00 34 1005.2
20260504214039 69 278 2.6 7.0 0.00 0.00 0.00 35 1005.2
20260504213539 69 228 1.7 7.0 0.00 0.00 0.00 35 1005.2
20260504213100 69 259 0.9 6.1 0.00 0.00 0.00 34 1005.1
20260504212540 68 297 2.6 6.1 0.00 0.00 0.00 35 1005.1
20260504212042 69 257 1.7 9.6 0.00 0.00 0.00 34 1005.1
20260504211549 69 283 3.5 9.6 0.00 0.00 0.00 34 1005.2
20260504211040 69 259 2.6 7.8 0.00 0.00 0.00 33 1005.0
20260504210538 69 264 3.5 7.8 0.00 0.00 0.00 34 1005.2
20260504210055 69 267 1.7 7.8 0.00 0.00 0.00 35 1005.1
20260504205539 69 19 1.7 7.0 0.00 0.00 0.00 36 1005.2
20260504205041 69 252 2.6 7.8 0.00 0.00 0.00 34 1005.1
20260504204622 71 301 3.5 12.2 0.00 0.00 0.00 33 1005.0
20260504204039 70 226 3.5 12.2 0.00 0.00 0.00 34 1005.0
20260504203542 70 268 5.2 12.2 0.00 0.00 0.00 33 1005.0
20260504203052 70 221 1.7 8.7 0.00 0.00 0.00 34 1005.2
20260504202535 69 278 3.5 9.6 0.00 0.00 0.00 36 1005.1
20260504202042 70 9 2.6 9.6 0.00 0.00 0.00 35 1005.1
20260504201550 69 328 3.5 9.6 0.00 0.00 0.00 35 1005.0
20260504201036 69 0 1.7 8.7 0.00 0.00 0.00 37 1005.1
20260504200539 69 338 2.6 10.4 0.00 0.00 0.00 37 1005.1
20260504200054 69 332 4.3 10.4 0.00 0.00 0.00 36 1005.1
20260504195535 70 340 2.6 7.0 0.00 0.00 0.00 36 1005.0
20260504195041 70 7 2.6 12.2 0.00 0.00 0.00 36 1005.1
20260504194553 70 289 3.5 12.2 0.00 0.00 0.00 36 1005.1
20260504194037 71 225 2.6 7.8 0.00 0.00 0.00 36 1005.2
20260504193536 70 295 4.3 7.8 0.00 0.00 0.00 36 1005.1
20260504193052 69 304 3.5 7.0 0.00 0.00 0.00 37 1005.1
20260504192536 69 283 2.6 8.7 0.00 0.00 0.00 37 1005.1
20260504192037 68 274 2.6 8.7 0.00 0.00 0.00 37 1005.1
20260504191547 68 342 4.3 7.8 0.00 0.00 0.00 36 1005.2
20260504191037 68 297 1.7 7.0 0.00 0.00 0.00 38 1005.2
20260504190536 67 300 3.5 7.8 0.00 0.00 0.00 40 1005.3
20260504190057 67 343 2.6 7.8 0.00 0.00 0.00 40 1005.4
20260504185536 66 297 1.7 6.1 0.00 0.00 0.00 40 1005.3
20260504185037 65 310 2.6 9.6 0.00 0.00 0.00 41 1005.2
20260504184601 64 110 3.5 9.6 0.00 0.00 0.00 41 1005.4
20260504184037 64 2 2.6 11.3 0.00 0.00 0.00 41 1005.5
20260504183538 64 292 3.5 11.3 0.00 0.00 0.00 40 1005.5
20260504183053 64 6 3.5 10.4 0.00 0.00 0.00 40 1005.5
20260504182539 64 334 2.6 10.4 0.00 0.00 0.00 40 1005.5
20260504182036 64 262 4.3 10.4 0.00 0.00 0.00 39 1005.4
20260504181549 64 46 3.5 9.6 0.00 0.00 0.00 39 1005.4
20260504181037 65 289 5.2 9.6 0.00 0.00 0.00 38 1005.5
20260504180537 65 195 3.5 13.0 0.00 0.00 0.00 39 1005.5
20260504180045 65 307 3.5 13.0 0.00 0.00 0.00 39 1005.6
20260504175537 65 271 1.7 6.1 0.00 0.00 0.00 39 1005.5
20260504175042 65 301 2.6 7.8 0.00 0.00 0.00 37 1005.6
20260504174552 65 296 3.5 7.8 0.00 0.00 0.00 36 1005.5
20260504174037 65 263 3.5 10.4 0.00 0.00 0.00 37 1005.4
20260504173536 65 309 3.5 10.4 0.00 0.00 0.00 36 1005.5
20260504173046 66 35 6.1 10.4 0.00 0.00 0.00 35 1005.3
20260504172536 66 51 4.3 8.7 0.00 0.00 0.00 35 1005.5
20260504172036 66 13 1.7 9.6 0.00 0.00 0.00 36 1005.3
20260504171549 67 305 4.3 9.6 0.00 0.00 0.00 37 1005.2
20260504171037 66 224 2.6 9.6 0.00 0.00 0.00 36 1005.3
20260504170537 67 335 3.5 8.7 0.00 0.00 0.00 35 1005.0
20260504151036 62 241 2.6 7.0 0.00 0.00 0.00 46 1006.5
20260504150540 62 242 2.6 7.0 0.00 0.00 0.00 45 1006.5
20260504141038 56 288 1.7 4.3 0.00 0.00 0.00 57 1007.2
20260504140538 55 245 0.9 3.5 0.00 0.00 0.00 59 1007.3
20260504130539 53 217 2.6 5.2 0.00 0.00 0.00 62 1007.8
20260504110537 42 0 0.0 0.9 0.00 0.00 0.00 70 1008.5
20260504100537 40 0 0.0 1.7 0.00 0.00 0.00 68 1008.5
20260504081558 37 0 0.0 0.9 0.00 0.00 0.00 73 1008.3
20260504081035 37 0 0.0 0.0 0.00 0.00 0.00 72 1008.3
20260504080535 37 0 0.0 0.0 0.00 0.00 0.00 72 1008.2
20260504050539 32 0 0.0 0.0 0.00 0.00 0.00 83 1008.1
20260504045538 33 0 0.0 0.0 0.00 0.00 0.00 82 1008.2
20260504045038 33 0 0.0 0.0 0.00 0.00 0.00 81 1008.1
20260504044546 33 0 0.0 0.0 0.00 0.00 0.00 81 1008.2
20260504044037 34 0 0.0 0.0 0.00 0.00 0.00 80 1008.1
20260504043537 34 0 0.0 0.0 0.00 0.00 0.00 81 1008.0
20260504043044 34 0 0.0 0.0 0.00 0.00 0.00 82 1008.1
20260504042537 33 0 0.0 0.0 0.00 0.00 0.00 82 1008.1
20260504042038 33 0 0.0 0.0 0.00 0.00 0.00 81 1008.1
20260504041551 33 0 0.0 0.0 0.00 0.00 0.00 81 1008.1
20260504041037 34 0 0.0 0.0 0.00 0.00 0.00 81 1008.1
20260504040537 34 0 0.0 0.0 0.00 0.00 0.00 80 1008.1
20260504040054 34 0 0.0 0.0 0.00 0.00 0.00 80 1008.0
20260504035540 34 0 0.0 0.0 0.00 0.00 0.00 79 1008.1
20260504035036 34 0 0.0 0.9 0.00 0.00 0.00 79 1008.0
20260504034600 35 0 0.0 0.9 0.00 0.00 0.00 78 1007.9
20260504034036 36 0 0.0 0.0 0.00 0.00 0.00 78 1007.9
20260504033536 36 0 0.0 0.0 0.00 0.00 0.00 76 1007.8
20260504033045 36 0 0.0 0.0 0.00 0.00 0.00 77 1007.8
20260504032536 35 0 0.0 0.0 0.00 0.00 0.00 77 1007.7
20260504032038 35 0 0.0 0.0 0.00 0.00 0.00 77 1007.8
20260504031543 36 0 0.0 0.0 0.00 0.00 0.00 77 1007.8
20260504031037 36 0 0.0 0.0 0.00 0.00 0.00 76 1007.8
20260504030537 36 0 0.0 0.0 0.00 0.00 0.00 74 1007.9
20260504030052 36 0 0.0 0.0 0.00 0.00 0.00 74 1007.8
20260504025537 36 0 0.0 0.0 0.00 0.02 0.00 74 1007.8
20260504025037 37 0 0.0 0.0 0.00 0.02 0.00 74 1007.8
20260504024550 37 0 0.0 0.0 0.00 0.02 0.00 73 1007.8
20260504024037 37 0 0.0 0.0 0.00 0.02 0.00 72 1007.8
20260504023537 37 0 0.0 0.0 0.00 0.02 0.00 72 1007.8
20260504023049 38 0 0.0 0.0 0.00 0.02 0.00 72 1007.8
20260504022537 38 0 0.0 0.0 0.00 0.02 0.00 70 1007.9
20260504022037 39 0 0.0 0.0 0.00 0.02 0.00 69 1007.9
20260504021554 38 0 0.0 0.0 0.00 0.02 0.00 69 1007.9
20260504021038 38 0 0.0 0.0 0.00 0.02 0.00 68 1007.9
20260504020536 39 0 0.0 0.0 0.00 0.02 0.00 68 1007.9
20260504020053 39 0 0.0 0.0 0.00 0.02 0.00 67 1007.9
20260504015538 40 0 0.0 0.0 0.00 0.03 0.00 66 1007.8
20260504015036 40 0 0.0 0.0 0.00 0.03 0.00 65 1007.8
20260504014559 41 0 0.0 0.0 0.00 0.03 0.00 64 1007.8
20260504014037 41 0 0.0 0.0 0.00 0.03 0.00 63 1007.8
20260504013537 41 0 0.0 0.0 0.00 0.03 0.00 62 1007.7
20260504013053 42 0 0.0 0.0 0.00 0.03 0.00 61 1007.6
20260504012537 42 0 0.0 0.9 0.00 0.03 0.00 60 1007.6
20260504012037 43 0 0.0 0.9 0.00 0.03 0.00 59 1007.5
20260504011558 43 0 0.0 1.7 0.00 0.03 0.00 59 1007.4